Date: January 11th 2008

SB KEPS @ AMSAT $ORB08010 O Orbital Elements 08010 OSCAR

HR AMSAT ORBITAL ELEMENTS FOR OSCAR SATELLITES FROM WA5QGD FORT WORTH,TX January 10, 2008 Send Subscribe/unsubscribe to KEPS at http://www amsat org/mailman/listinfo/keps BID: ORB08010 O TO ALL RADIO AMATEURS BT

Satellite: AO-07 Catalog number: 07530 Epoch time: 08008 72298450 Element set: 0074 Inclination: 101 4891 deg RA of node: 045 4661 deg Eccentricity: 0 0011926 Arg of perigee: 214 6314 deg Mean anomaly: 145 3979 deg Mean motion: 12 53573136 rev/day Decay rate: -2 8e-07 rev/day^2 Epoch rev: 51687 Checksum: 299

Satellite: AO-10 Catalog number: 14129 Epoch time: 08008 98779200 Element set: 0458 Inclination: 025 9399 deg RA of node: 236 6230 deg Eccentricity: 0 6039764 Arg of perigee: 088 5122 deg Mean anomaly: 335 4715 deg Mean motion: 02 05870685 rev/day Decay rate: -1 49e-06 rev/day^2 Epoch rev: 18480 Checksum: 328

Satellite: UO-11 Catalog number: 14781 Epoch time: 08008 77816931 Element set: 0566 Inclination: 098 1734 deg RA of node: 040 2522 deg Eccentricity: 0 0008273 Arg of perigee: 225 8448 deg Mean anomaly: 134 2109 deg Mean motion: 14 79608209 rev/day Decay rate: 8 3e-07 rev/day^2 Epoch rev: 28013 Checksum: 300

Satellite: RS-15 Catalog number: 23439 Epoch time: 08009 54592892 Element set: 0113 Inclination: 064 8178 deg RA of node: 033 2028 deg Eccentricity: 0 0152000 Arg of perigee: 153 1310 deg Mean anomaly: 207 7588 deg Mean motion: 11 27551984 rev/day Decay rate: -3 9e-07 rev/day^2 Epoch rev: 53696 Checksum: 300

Satellite: FO-29 Catalog number: 24278 Epoch time: 08009 90109926 Element set: 677 Inclination: 098 5784 deg RA of node: 307 0567 deg Eccentricity: 0 0349817 Arg of perigee: 267 9498 deg Mean anomaly: 088 1552 deg Mean motion: 13 52934787 rev/day Decay rate: -9 6e-07 rev/day^2 Epoch rev: 56285 Checksum: 384

Satellite: SO-33 Catalog number: 25509 Epoch time: 08010 65994403 Element set: 107 Inclination: 031 4283 deg RA of node: 132 6858 deg Eccentricity: 0 0354785 Arg of perigee: 081 2507 deg Mean anomaly: 282 8122 deg Mean motion: 14 28190439 rev/day Decay rate: -7 3e-07 rev/day^2 Epoch rev: 48093 Checksum: 305

Satellite: AO-40 Catalog number: 26609 Epoch time: 08010 36069352 Element set: 990 Inclination: 007 2666 deg RA of node: 103 0012 deg Eccentricity: 0 7928920 Arg of perigee: 040 5491 deg Mean anomaly: 356 5655 deg Mean motion: 01 25584041 rev/day Decay rate: -2 87e-06 rev/day^2 Epoch rev: 3304 Checksum: 285

Satellite: VO-52 Catalog number: 28650 Epoch time: 08009 32893476 Element set: 0826 Inclination: 097 8121 deg RA of node: 080 1818 deg Eccentricity: 0 0026123 Arg of perigee: 303 3046 deg Mean anomaly: 056 5649 deg Mean motion: 14 81405491 rev/day Decay rate: -3 7e-07 rev/day^2 Epoch rev: 14493 Checksum: 305

Satellite: PO-63 Catalog number: 29712 Epoch time: 08010 75790377 Element set: 83 Inclination: 097 8991 deg RA of node: 071 7827 deg Eccentricity: 0 0014525 Arg of perigee: 171 3647 deg Mean anomaly: 188 7820 deg Mean motion: 14 79978940 rev/day Decay rate: 8 00e-06 rev/day^2 Epoch rev: 5403 Checksum: 338

/EX SB KEPS @ AMSAT $ORB08010 D Orbital Elements 08010 MICROS

HR AMSAT ORBITAL ELEMENTS FOR THE MICROSATS FROM WA5QGD FORT WORTH,TX January 10, 2008 Send Subscribe/unsubscribe to KEPS at http://www amsat org/mailman/listinfo/keps BID: ORB08010 D TO ALL RADIO AMATEURS BT

Satellite: AO-16 Catalog number: 20439 Epoch time: 08009 52773434 Element set: 0224 Inclination: 098 2131 deg RA of node: 357 8965 deg Eccentricity: 0 0010222 Arg of perigee: 296 2519 deg Mean anomaly: 063 7617 deg Mean motion: 14 31781103 rev/day Decay rate: 1 0e-07 rev/day^2 Epoch rev: 93807 Checksum: 291

Satellite: LO-19 Catalog number: 20442 Epoch time: 08010 44004232 Element set: 147 Inclination: 098 1897 deg RA of node: 007 7300 deg Eccentricity: 0 0011068 Arg of perigee: 290 1262 deg Mean anomaly: 069 8734 deg Mean motion: 14 32020491 rev/day Decay rate: 9 0e-08 rev/day^2 Epoch rev: 93835 Checksum: 271

Satellite: AO-27 Catalog number: 22825 Epoch time: 08010 42325063 Element set: 871 Inclination: 098 3625 deg RA of node: 336 5903 deg Eccentricity: 0 0008832 Arg of perigee: 015 8086 deg Mean anomaly: 344 3362 deg Mean motion: 14 29227540 rev/day Decay rate: -1 3e-07 rev/day^2 Epoch rev: 74509 Checksum: 291

Satellite: IO-26 Catalog number: 22826 Epoch time: 08010 43482654 Element set: 571 Inclination: 098 3549 deg RA of node: 337 5844 deg Eccentricity: 0 0009276 Arg of perigee: 012 3749 deg Mean anomaly: 347 7659 deg Mean motion: 14 29475060 rev/day Decay rate: 2 0e-08 rev/day^2 Epoch rev: 74518 Checksum: 326

Satellite: PO-28 Catalog number: 22829 Epoch time: 08009 51968101 Element set: 0846 Inclination: 098 3436 deg RA of node: 337 8385 deg Eccentricity: 0 0009415 Arg of perigee: 347 5001 deg Mean anomaly: 012 5947 deg Mean motion: 14 30177024 rev/day Decay rate: -2 9e-07 rev/day^2 Epoch rev: 74530 Checksum: 307

Satellite: GO-32 Catalog number: 25397 Epoch time: 08009 79435597 Element set: 497 Inclination: 098 3872 deg RA of node: 052 6572 deg Eccentricity: 0 0001408 Arg of perigee: 029 0155 deg Mean anomaly: 331 1119 deg Mean motion: 14 23137024 rev/day Decay rate: 6 4e-07 rev/day^2 Epoch rev: 49354 Checksum: 308

Satellite: MO-46 Catalog number: 26548 Epoch time: 08009 17131771 Element set: 0995 Inclination: 064 5580 deg RA of node: 265 3902 deg Eccentricity: 0 0010849 Arg of perigee: 346 0502 deg Mean anomaly: 014 0308 deg Mean motion: 14 83217058 rev/day Decay rate: 1 11e-06 rev/day^2 Epoch rev: 39408 Checksum: 292

Satellite: NO-44 Catalog number: 26931 Epoch time: 08009 48665137 Element set: 776 Inclination: 067 0531 deg RA of node: 336 0587 deg Eccentricity: 0 0004809 Arg of perigee: 268 8950 deg Mean anomaly: 091 1603 deg Mean motion: 14 29508255 rev/day Decay rate: 6 9e-07 rev/day^2 Epoch rev: 32758 Checksum: 331

Satellite: SO-50 Catalog number: 27607 Epoch time: 08008 73592875 Element set: 0500 Inclination: 064 5566 deg RA of node: 180 9046 deg Eccentricity: 0 0076827 Arg of perigee: 311 6767 deg Mean anomaly: 047 7797 deg Mean motion: 14 71317263 rev/day Decay rate: 6 0e-08 rev/day^2 Epoch rev: 27136 Checksum: 328

Satellite: CO-55 Catalog number: 27844 Epoch time: 08009 69237062 Element set: 0208 Inclination: 098 7182 deg RA of node: 020 1626 deg Eccentricity: 0 0009325 Arg of perigee: 213 4057 deg Mean anomaly: 146 6527 deg Mean motion: 14 20553910 rev/day Decay rate: 6 6e-07 rev/day^2 Epoch rev: 23479 Checksum: 299

Satellite: CO-57 Catalog number: 27848 Epoch time: 08009 52832968 Element set: 0164 Inclination: 098 7175 deg RA of node: 019 1311 deg Eccentricity: 0 0009276 Arg of perigee: 218 2630 deg Mean anomaly: 141 7891 deg Mean motion: 14 20367062 rev/day Decay rate: 4 5e-07 rev/day^2 Epoch rev: 23474 Checksum: 313

Satellite: AO-51 Catalog number: 28375 Epoch time: 08009 50800746 Element set: 0003 Inclination: 098 0882 deg RA of node: 042 9220 deg Eccentricity: 0 0083449 Arg of perigee: 277 8356 deg Mean anomaly: 081 3369 deg Mean motion: 14 40593226 rev/day Decay rate: 7 0e-08 rev/day^2 Epoch rev: 18541 Checksum: 305

Satellite: CO-56 Catalog number: 28941 Epoch time: 08009 95392764 Element set: 0759 Inclination: 098 1078 deg RA of node: 100 0964 deg Eccentricity: 0 0195178 Arg of perigee: 255 9526 deg Mean anomaly: 101 9945 deg Mean motion: 15 48170777 rev/day Decay rate: 2 4080e-04 rev/day^2 Epoch rev: 10533 Checksum: 346

Satellite: HO-59 Catalog number: 29484 Epoch time: 08010 48547109 Element set: 25 Inclination: 098 2565 deg RA of node: 099 2466 deg Eccentricity: 0 0144226 Arg of perigee: 232 5616 deg Mean anomaly: 126 2411 deg Mean motion: 15 69626701 rev/day Decay rate: 7 3646e-04 rev/day^2 Epoch rev: 7338 Checksum: 325

Satellite: NO-61 Catalog number: 29664 Epoch time: 07359 16654419 Element set: 738 Inclination: 051 6179 deg RA of node: 150 0690 deg Eccentricity: 0 0003189 Arg of perigee: 248 8461 deg Mean anomaly: 111 8136 deg Mean motion: 16 51627846 rev/day Decay rate: 1 4620719e-01 rev/day^2 Epoch rev: 5877 Checksum: 345

Satellite: CP4 Catalog number: 31122 Epoch time: 08010 66030627 Element set: 232 Inclination: 098 0626 deg RA of node: 081 9945 deg Eccentricity: 0 0086623 Arg of perigee: 101 3584 deg Mean anomaly: 259 7361 deg Mean motion: 14 55074694 rev/day Decay rate: 5 52e-06 rev/day^2 Epoch rev: 3902 Checksum: 286

Satellite: CP3 Catalog number: 31128 Epoch time: 08010 69388476 Element set: 227 Inclination: 098 0596 deg RA of node: 080 6836 deg Eccentricity: 0 0103815 Arg of perigee: 104 8389 deg Mean anomaly: 256 4371 deg Mean motion: 14 51902757 rev/day Decay rate: -4 6e-07 rev/day^2 Epoch rev: 3893 Checksum: 321

Satellite: LIBERT Catalog number: 31129 Epoch time: 08010 60870132 Element set: 658 Inclination: 098 0618 deg RA of node: 080 6285 deg Eccentricity: 0 0103554 Arg of perigee: 105 1645 deg Mean anomaly: 256 1006 deg Mean motion: 14 51993838 rev/day Decay rate: 3 39e-06 rev/day^2 Epoch rev: 3890 Checksum: 287

/EX SB KEPS @ AMSAT $ORB08010 W Orbital Elements 08010 WEATHER

HR AMSAT ORBITAL ELEMENTS FOR WEATHER SATELLITES FROM WA5QGD FORT WORTH,TX January 10, 2008 Send Subscribe/unsubscribe to KEPS at http://www amsat org/mailman/listinfo/keps BID: ORB08010 W TO ALL RADIO AMATEURS BT

Satellite: NOAA-10 Catalog number: 16969 Epoch time: 08009 74851470 Element set: 0960 Inclination: 098 7342 deg RA of node: 031 9381 deg Eccentricity: 0 0011641 Arg of perigee: 287 6490 deg Mean anomaly: 072 3429 deg Mean motion: 14 27346720 rev/day Decay rate: -4 5e-07 rev/day^2 Epoch rev: 10869 Checksum: 315

Satellite: NOAA-11 Catalog number: 19531 Epoch time: 08010 33609305 Element set: 994 Inclination: 098 8052 deg RA of node: 101 8630 deg Eccentricity: 0 0011809 Arg of perigee: 157 8326 deg Mean anomaly: 202 3360 deg Mean motion: 14 14861437 rev/day Decay rate: -1 56e-06 rev/day^2 Epoch rev: 99544 Checksum: 292

